Trenton, NJ

12:16 AM EDT on July 26, 2017 (GMT -0400)
Trenton Mercer

Weather History for KTTN - December, 2013

Change the Weather History Date:

Wednesday, December 11, 2013

  Actual Average Record
Temperature  
Mean Temperature 24 °F 37 °F  
Max Temperature 32 °F 44 °F 65 °F (1911)
Min Temperature 16 °F 29 °F 9 °F (1880)
Degree Days  
Heating Degree Days 41 28  
Month to date heating degree days 298 292  
Since 1 July heating degree days 1285 1268  
Cooling Degree Days 0 0  
Month to date cooling degree days 0 0  
Year to date cooling degree days 1077 965  
Moisture  
Dew Point 16 °F    
Average Humidity 67    
Maximum Humidity 84    
Minimum Humidity 49    
Precipitation  
Precipitation 0.00 in 0.14 in 2.05 in (2008)
Month to date precipitation 1.84 1.50  
Year to date precipitation 40.65 44.24  
Sea Level Pressure  
Sea Level Pressure 30.26 in    
Wind  
Wind Speed 8 mph (West)    
Max Wind Speed 15 mph    
Max Gust Speed 22 mph    
Visibility 10 miles    
Events      
T = Trace of Precipitation, MM = Missing Value Source: NWS Daily Summary

Daily Weather History Graph

Daily Weather History Graph

Search for Another Location

Airport or City:

Trip Planner

Search our weather history database for the weather conditions in past years. The results will help you decide how hot, cold, wet, or windy it might be!

Date:

Astronomy

Dec. 11, 2013 Rise Set
Actual Time 7:11 AM EST 4:33 PM EST
Civil Twilight 6:41 AM EST 5:03 PM EST
Nautical Twilight 6:07 AM EST 5:37 PM EST
Astronomical Twilight 5:34 AM EST 6:11 PM EST
Moon 1:06 PM EST (12/11) 1:30 AM EST (12/11)
Length of Visible Light 10h 22m
Length of Day
9h 21m
Waxing Gibbous, 71% of the Moon is Illuminated
Dec 11
Waxing Gibbous
Dec 17
Full
Dec 25
Last Quarter
Jan 1
New
Jan 7
First Quarter

Hourly Weather History & Observations

Time (EST) Temp. Windchill Dew Point Humidity Pressure Visibility Wind Dir Wind Speed Gust Speed Precip Events Conditions
12:53 AM 24.1 °F 17.0 °F 17.1 °F 75% 30.17 in 10.0 mi West 5.8 mph - N/A   Clear
1:53 AM 23.0 °F 18.4 °F 16.0 °F 74% 30.20 in 10.0 mi West 3.5 mph - N/A   Clear
2:53 AM 21.9 °F 14.5 °F 16.0 °F 78% 30.25 in 10.0 mi West 5.8 mph - N/A   Clear
3:53 AM 23.0 °F 17.0 °F 15.1 °F 72% 30.25 in 10.0 mi West 4.6 mph - N/A   Clear
4:53 AM 24.1 °F 16.0 °F 14.0 °F 65% 30.27 in 10.0 mi WNW 6.9 mph - N/A   Clear
5:53 AM 21.0 °F 14.6 °F 12.9 °F 71% 30.29 in 10.0 mi WSW 4.6 mph - N/A   Clear
6:53 AM 18.0 °F 9.8 °F 14.0 °F 84% 30.31 in 10.0 mi Variable 5.8 mph - N/A   Clear
7:53 AM 19.0 °F 13.9 °F 16.0 °F 88% 30.33 in 8.0 mi Variable 3.5 mph - N/A   Clear
8:53 AM 21.0 °F 14.6 °F 17.1 °F 85% 30.35 in 8.0 mi SW 4.6 mph - N/A   Clear
9:53 AM 25.0 °F 16.3 °F 18.0 °F 75% 30.36 in 9.0 mi SW 8.1 mph - N/A   Clear
10:53 AM 28.0 °F 18.6 °F 17.1 °F 63% 30.34 in 10.0 mi West 10.4 mph - N/A   Clear
11:53 AM 28.9 °F 21.9 °F 17.1 °F 61% 30.30 in 10.0 mi West 6.9 mph - N/A   Clear
12:53 PM 30.0 °F 21.1 °F 16.0 °F 56% 30.27 in 10.0 mi WSW 10.4 mph 18.4 mph N/A   Clear
1:53 PM 30.9 °F 21.2 °F 16.0 °F 54% 30.25 in 10.0 mi West 12.7 mph - N/A   Clear
2:53 PM 32.0 °F 22.5 °F 15.1 °F 50% 30.25 in 10.0 mi West 12.7 mph - N/A   Clear
3:53 PM 30.9 °F 22.2 °F 17.1 °F 57% 30.24 in 10.0 mi West 10.4 mph - N/A   Clear
4:53 PM 28.9 °F 22.8 °F 16.0 °F 58% 30.23 in 10.0 mi West 5.8 mph - N/A   Clear
5:53 PM 28.9 °F 23.9 °F 16.0 °F 58% 30.24 in 10.0 mi West 4.6 mph - N/A   Clear
6:53 PM 28.0 °F 24.2 °F 16.0 °F 61% 30.24 in 10.0 mi West 3.5 mph - N/A   Partly Cloudy
7:53 PM 28.0 °F 20.8 °F 17.1 °F 63% 30.25 in 10.0 mi NW 6.9 mph - N/A   Mostly Cloudy
8:53 PM 26.1 °F 15.6 °F 16.0 °F 66% 30.25 in 10.0 mi NW 11.5 mph - N/A   Clear
9:53 PM 27.0 °F 16.7 °F 16.0 °F 63% 30.24 in 10.0 mi NW 11.5 mph - N/A   Mostly Cloudy
10:53 PM 25.0 °F 14.8 °F 15.1 °F 66% 30.23 in 10.0 mi NNW 10.4 mph - N/A   Clear
11:53 PM 24.1 °F 13.7 °F 14.0 °F 65% 30.23 in 10.0 mi NNW 10.4 mph - N/A   Clear